EWG9627 LGZA-EDDL

Flight info

Callsign EWG9627
Flight time N/A
Altitude 34000
Route OSDES2H OSDES Y302 SOTEG UY302 GARTA UV60 YNN UL604 DIMIS DCT RENKA DCT EXITI DCT TESDU DCT AMETU T852 TINSA T854 DOMUX DOMUX1A
Aircraft A321/M-SDE3FGHIRWY/LB1

Departure

Time 2026-05-07 16:32
Airport Zakynthos International Airport Dionysios Solomos (LGZA)

Arrival

Time N/A
Airport Düsseldorf Airport (EDDL)
Time Latitude Longitude Altitude Speed Heading
2026-05-07 16:10 37.75212 20.88594 21 ft 0 kts 73°
2026-05-07 16:24 37.75207 20.88572 20 ft 4 kts 75°
2026-05-07 16:25 37.75199 20.88539 21 ft 4 kts 68°
2026-05-07 16:25 37.75187 20.88515 20 ft 4 kts 18°
2026-05-07 16:25 37.75180 20.88513 20 ft 0 kts 343°
2026-05-07 16:28 37.75200 20.88505 20 ft 5 kts 343°
2026-05-07 16:28 37.75249 20.88487 20 ft 9 kts 343°
2026-05-07 16:29 37.75326 20.88459 20 ft 13 kts 343°
2026-05-07 16:29 37.75422 20.88422 20 ft 15 kts 343°
2026-05-07 16:29 37.75469 20.88363 21 ft 15 kts 298°
2026-05-07 16:29 37.75565 20.88252 21 ft 15 kts 338°
2026-05-07 16:30 37.75628 20.88226 22 ft 14 kts 344°
2026-05-07 16:30 37.75724 20.88190 23 ft 14 kts 342°
2026-05-07 16:30 37.75826 20.88150 22 ft 16 kts 342°
2026-05-07 16:30 37.75938 20.88108 21 ft 17 kts 346°
2026-05-07 16:31 37.76020 20.88053 20 ft 11 kts 318°
2026-05-07 16:31 37.76037 20.88097 20 ft 12 kts 164°
2026-05-07 16:31 37.75958 20.88104 21 ft 5 kts 162°
2026-05-07 16:31 37.75921 20.88117 21 ft 7 kts 165°
2026-05-07 16:32 37.75703 20.88200 23 ft 68 kts 164°
2026-05-07 16:32 37.75009 20.88457 20 ft 134 kts 163°
2026-05-07 16:32 37.73968 20.88848 329 ft 160 kts 164°
2026-05-07 16:32 37.72899 20.89247 1095 ft 159 kts 164°
2026-05-07 16:33 37.71825 20.89645 1887 ft 152 kts 164°
2026-05-07 16:33 37.70786 20.90012 2290 ft 163 kts 165°
2026-05-07 16:33 37.69632 20.90468 2468 ft 184 kts 154°
2026-05-07 16:33 37.68711 20.91687 2588 ft 211 kts 114°
2026-05-07 16:34 37.68675 20.93670 2771 ft 245 kts 73°
2026-05-07 16:34 37.69750 20.95449 3125 ft 271 kts 36°
2026-05-07 16:34 37.71543 20.96190 3705 ft 282 kts
2026-05-07 16:34 37.73541 20.96058 4375 ft 286 kts 352°
2026-05-07 16:35 37.75540 20.95636 5061 ft 289 kts 349°
2026-05-07 16:35 37.77538 20.95210 5716 ft 292 kts 351°
2026-05-07 16:35 37.79553 20.94878 6386 ft 295 kts 354°
2026-05-07 16:35 37.81593 20.94649 7011 ft 298 kts 355°
2026-05-07 16:36 37.83710 20.94496 7656 ft 300 kts 356°
2026-05-07 16:36 37.85830 20.94395 8293 ft 303 kts 356°
2026-05-07 16:36 37.87944 20.94319 8923 ft 306 kts 356°
2026-05-07 16:36 37.90079 20.94252 9551 ft 308 kts 356°
2026-05-07 16:37 37.91417 20.94210 9933 ft 310 kts 355°
2026-05-07 16:37 37.94506 20.94108 10297 ft 333 kts 355°
2026-05-07 16:37 37.96891 20.94021 10419 ft 352 kts 355°
2026-05-07 16:37 37.99394 20.93928 10529 ft 369 kts 355°
2026-05-07 16:38 38.02049 20.93829 10785 ft 381 kts 355°
2026-05-07 16:38 38.04713 20.93734 11275 ft 385 kts 355°
2026-05-07 16:38 38.07398 20.93642 11815 ft 387 kts 355°
2026-05-07 16:38 38.10137 20.93550 12388 ft 389 kts 355°
2026-05-07 16:39 38.12850 20.93458 12931 ft 391 kts 354°
2026-05-07 16:39 38.15578 20.93361 13477 ft 393 kts 354°
2026-05-07 16:39 38.17430 20.93293 13841 ft 394 kts 354°
2026-05-07 16:39 38.21114 20.93155 14493 ft 397 kts 354°
2026-05-07 16:40 38.22937 20.93088 14822 ft 398 kts 354°
2026-05-07 16:40 38.25710 20.92989 15327 ft 399 kts 354°
2026-05-07 16:40 38.28491 20.92892 15835 ft 400 kts 354°
2026-05-07 16:40 38.31320 20.92788 16337 ft 402 kts 354°
2026-05-07 16:41 38.34121 20.92683 16832 ft 403 kts 354°
2026-05-07 16:41 38.36978 20.92598 17285 ft 406 kts 355°
2026-05-07 16:41 38.39829 20.92660 17727 ft 409 kts 358°
2026-05-07 16:41 38.42708 20.92844 18189 ft 412 kts 359°
2026-05-07 16:42 38.45592 20.93090 18606 ft 414 kts 360°
2026-05-07 16:42 38.48446 20.93345 18977 ft 415 kts 360°
2026-05-07 16:42 38.51376 20.93595 19358 ft 416 kts 359°
2026-05-07 16:42 38.54272 20.93820 19736 ft 418 kts 359°
2026-05-07 16:43 38.57179 20.94024 20113 ft 419 kts 358°
2026-05-07 16:43 38.60093 20.94212 20489 ft 421 kts 358°
2026-05-07 16:43 38.63062 20.94397 20872 ft 422 kts 358°
2026-05-07 16:43 38.66003 20.94586 21255 ft 424 kts 358°
2026-05-07 16:44 38.68948 20.94781 21626 ft 425 kts 358°
2026-05-07 16:44 38.71910 20.94981 21993 ft 427 kts 358°
2026-05-07 16:44 38.74926 20.95190 22395 ft 428 kts 358°
2026-05-07 16:44 38.77943 20.95403 22787 ft 430 kts 358°
2026-05-07 16:45 38.80962 20.95617 23115 ft 432 kts 358°
2026-05-07 16:45 38.84025 20.95829 23488 ft 433 kts 358°
2026-05-07 16:45 38.86992 20.96033 23816 ft 435 kts 358°
2026-05-07 16:45 38.90068 20.96245 24119 ft 436 kts 358°
2026-05-07 16:46 38.93140 20.96458 24426 ft 437 kts 358°
2026-05-07 16:46 38.96007 20.96658 24704 ft 438 kts 357°
2026-05-07 16:46 38.98532 20.96695 24951 ft 435 kts 351°
2026-05-07 16:46 39.02049 20.96114 25262 ft 432 kts 345°
2026-05-07 16:47 39.04909 20.95520 25525 ft 433 kts 345°
2026-05-07 16:47 39.08240 20.94834 25844 ft 435 kts 345°
2026-05-07 16:47 39.11269 20.94215 26128 ft 436 kts 345°
2026-05-07 16:47 39.14228 20.93615 26404 ft 437 kts 345°
2026-05-07 16:48 39.17277 20.92998 26686 ft 438 kts 345°
2026-05-07 16:48 39.20291 20.92386 26953 ft 439 kts 345°
2026-05-07 16:48 39.23359 20.91761 27188 ft 441 kts 345°
2026-05-07 16:48 39.26405 20.91137 27392 ft 443 kts 345°
2026-05-07 16:49 39.29456 20.90509 27628 ft 444 kts 345°
2026-05-07 16:49 39.32510 20.89881 27850 ft 446 kts 345°
2026-05-07 16:49 39.34565 20.89457 28015 ft 446 kts 345°
2026-05-07 16:49 39.38696 20.88608 28325 ft 448 kts 345°
2026-05-07 16:50 39.41774 20.87973 28598 ft 448 kts 345°
2026-05-07 16:50 39.43936 20.87526 28841 ft 447 kts 345°
2026-05-07 16:50 39.46992 20.86892 29098 ft 447 kts 345°
2026-05-07 16:50 39.50132 20.86243 29370 ft 447 kts 345°
2026-05-07 16:51 39.53624 20.85525 29708 ft 446 kts 345°
2026-05-07 16:51 39.56734 20.84887 29995 ft 445 kts 345°
2026-05-07 16:51 39.59778 20.84261 30250 ft 444 kts 345°
2026-05-07 16:51 39.62827 20.83630 30494 ft 442 kts 344°
2026-05-07 16:52 39.65856 20.83000 30801 ft 440 kts 344°
2026-05-07 16:52 39.68891 20.82286 31109 ft 432 kts 339°
2026-05-07 16:52 39.71778 20.81055 31425 ft 420 kts 330°
2026-05-07 16:52 39.74344 20.79516 31719 ft 415 kts 328°
2026-05-07 16:53 39.76987 20.77907 32047 ft 412 kts 327°
2026-05-07 16:53 39.79537 20.76363 32416 ft 407 kts 327°
2026-05-07 16:53 39.82168 20.74773 32823 ft 402 kts 327°
2026-05-07 16:53 39.84813 20.73175 33226 ft 396 kts 326°
2026-05-07 16:54 39.87266 20.71692 33624 ft 391 kts 326°
2026-05-07 16:54 39.89719 20.70204 34023 ft 386 kts 326°
2026-05-07 16:54 39.92145 20.68725 34102 ft 383 kts 326°
2026-05-07 16:55 39.96945 20.65786 34110 ft 380 kts 325°
2026-05-07 16:55 40.01733 20.62854 34113 ft 381 kts 325°
2026-05-07 16:56 40.06535 20.59907 34109 ft 381 kts 324°
2026-05-07 16:56 40.13526 20.55161 34128 ft 378 kts 322°
2026-05-07 16:57 40.18125 20.51826 34132 ft 379 kts 322°
2026-05-07 16:57 40.22747 20.48505 34132 ft 379 kts 323°
2026-05-07 16:58 40.27384 20.45217 34122 ft 379 kts 322°
2026-05-07 16:58 40.32029 20.41927 34115 ft 380 kts 322°
2026-05-07 16:59 40.36681 20.38616 34140 ft 381 kts 322°
2026-05-07 16:59 40.41349 20.35285 34106 ft 383 kts 322°
2026-05-07 17:00 40.45279 20.32480 34091 ft 384 kts 322°
2026-05-07 17:00 40.49988 20.29123 34087 ft 385 kts 322°
2026-05-07 17:01 40.54701 20.25752 34097 ft 387 kts 322°
2026-05-07 17:01 40.59426 20.22355 34114 ft 387 kts 322°
2026-05-07 17:02 40.64168 20.18939 34084 ft 390 kts 323°
2026-05-07 17:02 40.68940 20.15497 34070 ft 393 kts 323°
2026-05-07 17:03 40.73751 20.12033 34072 ft 395 kts 322°
2026-05-07 17:03 40.78580 20.08556 34077 ft 396 kts 322°
2026-05-07 17:04 40.83418 20.05061 34074 ft 396 kts 322°
2026-05-07 17:04 40.88265 20.01543 34077 ft 399 kts 322°
2026-05-07 17:05 40.93109 19.98027 34060 ft 401 kts 322°
2026-05-07 17:05 40.98001 19.94471 34055 ft 401 kts 322°
2026-05-07 17:06 41.02904 19.90910 34076 ft 402 kts 323°
2026-05-07 17:06 41.07808 19.87335 34084 ft 403 kts 322°
2026-05-07 17:07 41.12716 19.83751 34089 ft 402 kts 323°
2026-05-07 17:07 41.17609 19.80169 34095 ft 402 kts 322°
2026-05-07 17:08 41.22510 19.76568 34099 ft 402 kts 322°
2026-05-07 17:08 41.27413 19.72962 34099 ft 403 kts 322°
2026-05-07 17:09 41.32311 19.69362 34088 ft 401 kts 321°
2026-05-07 17:09 41.37179 19.65779 34104 ft 398 kts 321°
2026-05-07 17:10 41.42010 19.62217 34106 ft 395 kts 321°
2026-05-07 17:10 41.46811 19.58662 34106 ft 394 kts 321°
2026-05-07 17:11 41.51601 19.55117 34098 ft 393 kts 321°
2026-05-07 17:11 41.56381 19.51561 34109 ft 393 kts 321°
2026-05-07 17:12 41.61169 19.47992 34104 ft 394 kts 321°
2026-05-07 17:12 41.65967 19.44423 34103 ft 395 kts 321°
2026-05-07 17:13 41.70774 19.40847 34096 ft 395 kts 321°
2026-05-07 17:13 41.75576 19.37258 34095 ft 395 kts 321°
2026-05-07 17:14 41.80355 19.33680 34094 ft 397 kts 322°
2026-05-07 17:14 41.85189 19.30053 34081 ft 398 kts 322°
2026-05-07 17:15 41.90033 19.26412 34079 ft 400 kts 322°
2026-05-07 17:15 41.94892 19.22763 34081 ft 400 kts 322°
2026-05-07 17:16 41.99747 19.19106 34088 ft 400 kts 322°
2026-05-07 17:16 42.04619 19.15418 34091 ft 403 kts 323°
2026-05-07 17:17 42.09515 19.11717 34091 ft 404 kts 323°
2026-05-07 17:17 42.14436 19.07994 34072 ft 406 kts 323°
2026-05-07 17:18 42.19373 19.04246 34084 ft 408 kts 323°
2026-05-07 17:18 42.24323 19.00484 34086 ft 409 kts 323°
2026-05-07 17:19 42.29289 18.96699 34072 ft 411 kts 323°
2026-05-07 17:19 42.34269 18.92893 34072 ft 412 kts 323°
2026-05-07 17:20 42.39267 18.89071 34075 ft 412 kts 323°
2026-05-07 17:20 42.44267 18.85247 34083 ft 413 kts 323°
2026-05-07 17:21 42.49280 18.81403 34091 ft 414 kts 323°
2026-05-07 17:21 42.54308 18.77535 34098 ft 416 kts 323°
2026-05-07 17:22 42.59316 18.73675 34090 ft 417 kts 323°
2026-05-07 17:22 42.64366 18.69772 34090 ft 417 kts 323°
2026-05-07 17:23 42.69422 18.65861 34114 ft 418 kts 323°
2026-05-07 17:23 42.74483 18.61946 34089 ft 420 kts 323°
2026-05-07 17:24 42.79570 18.58007 34086 ft 421 kts 323°
2026-05-07 17:24 42.84655 18.54052 34098 ft 421 kts 323°
2026-05-07 17:25 42.89748 18.50080 34096 ft 422 kts 323°
2026-05-07 17:25 42.94847 18.46094 34094 ft 423 kts 323°
2026-05-07 17:26 42.99976 18.42080 34105 ft 425 kts 323°
2026-05-07 17:26 43.05107 18.38060 34101 ft 426 kts 323°
2026-05-07 17:27 43.10248 18.34024 34100 ft 426 kts 323°
2026-05-07 17:27 43.15395 18.29970 34110 ft 427 kts 324°
2026-05-07 17:28 43.20554 18.25900 34092 ft 429 kts 324°
2026-05-07 17:28 43.25730 18.21814 34088 ft 430 kts 324°
2026-05-07 17:29 43.30925 18.17714 34092 ft 430 kts 324°
2026-05-07 17:29 43.36111 18.13600 34095 ft 431 kts 323°
2026-05-07 17:30 43.41298 18.09465 34097 ft 431 kts 323°
2026-05-07 17:30 43.46491 18.05331 34098 ft 431 kts 324°
2026-05-07 17:31 43.51682 18.01190 34097 ft 431 kts 323°
2026-05-07 17:31 43.56869 17.97046 34115 ft 431 kts 324°
2026-05-07 17:32 43.62066 17.92881 34093 ft 432 kts 324°
2026-05-07 17:32 43.66388 17.89419 34080 ft 432 kts 324°
2026-05-07 17:33 43.72484 17.84523 34095 ft 434 kts 323°
2026-05-07 17:33 43.77666 17.80341 34100 ft 433 kts 323°
2026-05-07 17:34 43.82886 17.76121 34109 ft 434 kts 323°
2026-05-07 17:34 43.88103 17.71900 34100 ft 433 kts 323°
2026-05-07 17:35 43.93317 17.67683 34092 ft 434 kts 323°
2026-05-07 17:35 43.98518 17.63452 34098 ft 433 kts 323°
2026-05-07 17:36 44.03725 17.59214 34078 ft 432 kts 323°
2026-05-07 17:36 44.08913 17.54979 34083 ft 433 kts 323°
2026-05-07 17:37 44.14105 17.50724 34077 ft 433 kts 323°
2026-05-07 17:37 44.19302 17.46465 34071 ft 434 kts 323°
2026-05-07 17:38 44.23630 17.42914 34098 ft 434 kts 323°
2026-05-07 17:38 44.28835 17.38632 34096 ft 435 kts 323°
2026-05-07 17:39 44.34047 17.34348 34083 ft 435 kts 323°
2026-05-07 17:39 44.39261 17.30038 34070 ft 435 kts 323°
2026-05-07 17:40 44.44474 17.25721 34069 ft 435 kts 323°
2026-05-07 17:40 44.49694 17.21379 34067 ft 436 kts 323°
2026-05-07 17:41 44.54919 17.17037 34078 ft 436 kts 323°
2026-05-07 17:41 44.60145 17.12686 34061 ft 437 kts 323°
2026-05-07 17:42 44.65371 17.08329 34052 ft 437 kts 323°
2026-05-07 17:42 44.70597 17.03972 34059 ft 437 kts 323°
2026-05-07 17:43 44.75822 16.99588 34046 ft 437 kts 322°
2026-05-07 17:43 44.81061 16.95179 34044 ft 438 kts 322°
2026-05-07 17:44 44.86291 16.90783 34051 ft 438 kts 322°
2026-05-07 17:44 44.91502 16.86397 34060 ft 439 kts 322°
2026-05-07 17:45 44.96749 16.81954 34053 ft 440 kts 322°
2026-05-07 17:45 45.02008 16.77497 34041 ft 440 kts 322°
2026-05-07 17:46 45.07262 16.73035 34040 ft 440 kts 322°
2026-05-07 17:46 45.12520 16.68566 34053 ft 441 kts 322°
2026-05-07 17:47 45.17777 16.64088 34051 ft 441 kts 322°
2026-05-07 17:47 45.23028 16.59598 34044 ft 441 kts 322°
2026-05-07 17:48 45.28276 16.55101 34037 ft 441 kts 322°
2026-05-07 17:48 45.33528 16.50593 34036 ft 441 kts 322°
2026-05-07 17:49 45.38781 16.46072 34031 ft 441 kts 321°
2026-05-07 17:49 45.43981 16.41579 34020 ft 440 kts 321°
2026-05-07 17:50 45.49222 16.37052 34023 ft 441 kts 321°
2026-05-07 17:50 45.54473 16.32518 34019 ft 441 kts 321°
2026-05-07 17:51 45.59662 16.28022 34018 ft 441 kts 321°
2026-05-07 17:51 45.64976 16.23401 34050 ft 441 kts 321°
2026-05-07 17:52 45.70220 16.18827 34037 ft 441 kts 321°
2026-05-07 17:52 45.75459 16.14250 34031 ft 441 kts 321°
2026-05-07 17:53 45.80689 16.09663 34032 ft 440 kts 321°
2026-05-07 17:53 45.85914 16.05079 34025 ft 441 kts 321°
2026-05-07 17:54 45.91150 16.00477 34019 ft 441 kts 321°
2026-05-07 17:54 45.96388 15.95858 34036 ft 440 kts 321°
2026-05-07 17:55 46.01604 15.91255 34018 ft 439 kts 321°
2026-05-07 17:55 46.06808 15.86643 34011 ft 439 kts 321°
2026-05-07 17:56 46.11965 15.82070 33996 ft 436 kts 321°
2026-05-07 17:56 46.17136 15.77476 33987 ft 437 kts 321°
2026-05-07 17:57 46.21468 15.73612 33984 ft 437 kts 320°
2026-05-07 17:57 46.27474 15.68233 33978 ft 437 kts 320°
2026-05-07 17:58 46.32646 15.63606 33994 ft 437 kts 321°
2026-05-07 17:58 46.37828 15.58971 33986 ft 438 kts 321°
2026-05-07 17:59 46.43003 15.54322 33969 ft 438 kts 320°
2026-05-07 17:59 46.48189 15.49637 33968 ft 438 kts 320°
2026-05-07 18:00 46.53363 15.44953 33985 ft 438 kts 321°
2026-05-07 18:00 46.58553 15.40262 33971 ft 440 kts 321°